FW8731 Weather Reports


Display with metric or nautical units.
time (UTC)temp
F
wind
direction
speed
MPH
gust
MPH
rain 1hr
in
rain 24hr
in
rain mn
in
humidity
%
barometer
mb
20260906094544 54 0 0.0 0.0 0.00 0.00 0.00 89 1015.9
20260906093041 54 0 0.0 0.0 0.00 0.00 0.00 89 1016.0
20260906091546 54 0 0.0 0.0 0.00 0.00 0.00 88 1016.0
20260906090045 54 0 0.0 0.0 0.00 0.00 0.00 88 1015.9
20260906084544 54 0 0.0 0.0 0.00 0.00 0.00 87 1016.0
20260906083050 54 0 0.0 0.0 0.00 0.00 0.00 87 1016.2
20260906081550 55 0 0.0 0.0 0.00 0.00 0.00 86 1016.1
20260906080044 55 0 0.0 0.0 0.00 0.00 0.00 85 1016.1
20260906074603 55 0 0.0 0.0 0.00 0.00 0.00 85 1016.3
20260906073048 56 0 0.0 0.0 0.00 0.00 0.00 85 1016.2
20260906071544 56 0 0.0 0.0 0.00 0.00 0.00 84 1016.2
20260906070052 57 0 0.0 0.0 0.00 0.00 0.00 83 1016.2
20260906064545 57 0 0.0 0.0 0.00 0.00 0.00 83 1016.2
20260906063046 57 0 0.0 0.0 0.00 0.00 0.00 83 1016.2
20260906061557 58 0 0.0 0.0 0.00 0.00 0.00 82 1016.2
20260906060052 59 0 0.0 0.0 0.00 0.00 0.00 81 1016.2
20260906054545 59 0 0.0 0.0 0.00 0.00 0.00 80 1016.3
20260906053043 60 0 0.0 0.0 0.00 0.00 0.00 80 1016.2
20260906051552 60 0 0.0 0.0 0.00 0.00 0.00 79 1016.2
20260906050055 60 0 0.0 3.0 0.00 0.00 0.00 78 1016.3
20260906044547 61 0 0.0 2.0 0.00 0.00 0.00 77 1016.2
20260906043051 61 174 0.0 4.0 0.00 0.00 0.00 76 1016.3
20260906041550 62 0 0.0 3.0 0.00 0.00 0.00 71 1016.2
20260906040048 62 0 0.0 1.0 0.00 0.00 0.00 70 1015.9
20260906034543 62 0 0.0 1.0 0.00 0.00 0.00 68 1015.8
20260906033052 63 0 0.0 0.0 0.00 0.00 0.00 66 1015.5
20260906031558 63 0 0.0 1.0 0.00 0.00 0.00 65 1015.5
20260906030046 64 82 0.0 1.0 0.00 0.00 0.00 64 1015.4
20260906024541 64 0 0.0 1.0 0.00 0.00 0.00 64 1015.3
20260906023044 65 0 0.0 3.0 0.00 0.00 0.00 62 1015.2
20260906021552 65 96 0.0 1.0 0.00 0.00 0.00 63 1015.2
20260906020056 65 0 0.0 7.0 0.00 0.00 0.00 63 1014.9
20260906014543 66 46 1.0 7.0 0.00 0.00 0.00 62 1014.6
20260906013044 67 161 2.0 8.0 0.00 0.00 0.00 58 1014.2
20260906011545 68 277 4.0 10.0 0.00 0.00 0.00 54 1014.0
20260906010044 71 201 10.0 19.0 0.00 0.00 0.00 47 1013.9
20260906004626 74 190 2.0 4.0 0.00 0.00 0.00 38 1013.2
20260906003046 75 140 1.0 5.0 0.00 0.00 0.00 36 1013.1
20260906001554 77 263 1.0 9.0 0.00 0.00 0.00 35 1013.2
20260906000053 77 74 1.0 4.0 0.00 0.00 0.00 33 1013.1
20260905234548 77 11 2.0 8.0 0.00 0.00 0.00 36 1013.0
20260905233044 78 42 2.0 7.0 0.00 0.00 0.00 32 1013.1
20260905231543 77 186 4.0 11.0 0.00 0.00 0.00 34 1013.4
20260905230052 77 18 2.0 10.0 0.00 0.00 0.00 35 1013.5
20260905224559 76 81 4.0 8.0 0.00 0.00 0.00 36 1013.5
20260905223050 76 250 2.0 10.0 0.00 0.00 0.00 38 1013.8
20260905221556 76 0 1.0 5.0 0.00 0.00 0.00 38 1013.9
20260905220105 75 272 4.0 11.0 0.00 0.00 0.00 40 1014.2
20260905214547 75 292 1.0 8.0 0.00 0.00 0.00 40 1014.3
20260905213043 75 50 2.0 8.0 0.00 0.00 0.00 43 1014.3
20260905211621 75 346 1.0 6.0 0.00 0.00 0.00 42 1014.4
20260905210055 73 96 1.0 9.0 0.00 0.00 0.00 43 1014.6
20260905204552 73 225 2.0 6.0 0.00 0.00 0.00 46 1014.7
20260905203110 71 297 2.0 7.0 0.00 0.00 0.00 46 1014.8
20260905201553 70 323 1.0 6.0 0.00 0.00 0.00 50 1014.9
20260905200057 70 0 0.0 6.0 0.00 0.00 0.00 52 1014.9
20260905194547 69 197 1.0 4.0 0.00 0.00 0.00 54 1015.2
20260905193044 68 242 2.0 5.0 0.00 0.00 0.00 52 1015.5
20260905191550 66 221 1.0 5.0 0.00 0.00 0.00 58 1015.7
20260905190054 66 337 0.0 4.0 0.00 0.00 0.00 61 1015.9
20260905184551 65 175 1.0 4.0 0.00 0.00 0.00 63 1016.2
20260905183058 63 180 1.0 3.0 0.00 0.00 0.00 65 1016.4
20260905181603 62 0 0.0 3.0 0.00 0.00 0.00 69 1016.5
20260905180047 61 179 0.0 2.0 0.00 0.00 0.00 72 1016.8
20260905174551 60 0 0.0 2.0 0.00 0.00 0.00 76 1016.9
20260905173048 57 0 0.0 1.0 0.00 0.00 0.00 80 1017.0
20260905171546 55 0 0.0 2.0 0.00 0.00 0.00 85 1017.0
20260905170042 54 0 0.0 1.0 0.00 0.00 0.00 88 1017.1
20260905164552 53 0 0.0 1.0 0.00 0.00 0.00 91 1017.3
20260905163049 51 0 0.0 0.0 0.00 0.00 0.00 94 1017.4
20260905161554 49 0 0.0 0.0 0.00 0.00 0.00 94 1017.6
20260905160125 46 0 0.0 0.0 0.00 0.00 0.00 94 1017.8
20260905154549 46 0 0.0 0.0 0.00 0.00 0.00 93 1017.8
20260905153043 45 0 0.0 0.0 0.00 0.00 0.00 93 1017.9
20260905151557 45 0 0.0 0.0 0.00 0.00 0.00 93 1018.0
20260905150050 45 0 0.0 0.0 0.00 0.00 0.00 93 1017.9
20260905144546 45 0 0.0 0.0 0.00 0.00 0.00 93 1018.0
20260905143052 45 0 0.0 0.0 0.00 0.00 0.00 93 1017.9
20260905141546 44 0 0.0 0.0 0.00 0.00 0.00 92 1017.9
20260905140046 44 0 0.0 0.0 0.00 0.00 0.00 92 1017.7
20260905134551 45 0 0.0 0.0 0.00 0.00 0.00 92 1017.6
20260905133048 45 0 0.0 0.0 0.00 0.00 0.00 92 1017.6
20260905131546 45 0 0.0 0.0 0.00 0.00 0.00 91 1017.6
20260905130052 46 0 0.0 0.0 0.00 0.00 0.00 92 1017.5
20260905124554 46 0 0.0 0.0 0.00 0.00 0.00 91 1017.5
20260905123049 46 0 0.0 0.0 0.00 0.00 0.00 91 1017.5
20260905121557 46 0 0.0 0.0 0.00 0.00 0.00 91 1017.5
20260905120114 47 0 0.0 1.0 0.00 0.00 0.00 91 1017.5
20260905114549 47 0 0.0 0.0 0.00 0.01 0.00 91 1017.7
20260905113044 47 0 0.0 0.0 0.00 0.01 0.00 91 1017.7
20260905111607 48 0 0.0 0.0 0.00 0.01 0.00 91 1017.6
20260905110057 48 0 0.0 0.0 0.00 0.01 0.00 91 1017.5
20260905104546 48 0 0.0 0.0 0.00 0.01 0.00 91 1017.6
20260905103050 48 0 0.0 1.0 0.00 0.01 0.00 91 1017.7
20260905101552 48 0 0.0 0.0 0.00 0.01 0.00 91 1017.6
20260905100055 48 0 0.0 0.0 0.00 0.01 0.00 91 1017.6